Location: Emblem
(62.4273°N, 6.4710°E)
Time: 05:57:43
(UTC+01:00)

Explorer 7 - Visible Passes

Search period start: 30 January 2023 00:00
Search period end: 09 February 2023 00:00
Orbit: 480 x 660 km, 50.3° (Epoch: 29 January)

Date Brightness Start Highest point End Pass type
(mag) Time Alt. Az. Time Alt. Az. Time Alt. Az.
30 Jan 9.6 17:17:16 10° SW 17:20:20 18° S 17:23:28 10° SE visible
30 Jan 9.8 18:57:38 10° SW 18:59:24 12° SSW 19:01:12 10° S visible
31 Jan 9.7 17:18:08 10° SW 17:21:03 17° S 17:24:03 10° SSE visible
